Location: Allison Elementary School
(34.0784°N, 117.7317°W)
Time: 16:56:58
(UTC+00:00)

NOAA 11 - Pass Details

Date: 15 November 2019
Orbit: 834 x 849 km, 98.4° (Epoch: 13 December)

Event Time Altitude Azimuth Distance (km) Brightness Sun altitude
Rises 02:43:45 0° 164° (SSE) 3,366 7.2 -24.1°
Reaches altitude 10° 02:46:05 10° 164° (SSE) 2,435 6.5 -24.5°
Maximum altitude 02:51:30 85° 77° (ENE) 841 4.0 -25.6°
Drops below altitude 10° 02:56:56 10° 349° (NNW) 2,450 6.7 -26.8°
Sets 02:59:18 0° 349° (NNW) 3,389 7.4 -27.3°
